Overview Statistics Trail Chart Weather Telemetry Raw packets
 

This is the latest recevied weather packets stored in our database for station/object SV9TNF-52. If no packets are shown the sender has not sent any weather packets the latest 10 day(s).

<< 82 83 84 85 86 87 88 >>
Time Temp. Humidity Pressure Rain* Wind** Luminosity Snow
1788083536 31.67° C 45% 1021.7 hPa 0 mm 4.02 m/s, 16° - -
1788083236 31.67° C 46% 1021.7 hPa 0 mm 1.79 m/s, 97° - -
1788082936 32.22° C 43% 1021.7 hPa 0 mm 4.92 m/s, 347° - -
1788082636 31.67° C 45% 1021.7 hPa 0 mm 6.71 m/s, 319° - -
1788082336 31.11° C 48% 1022 hPa 0 mm 0.89 m/s, 14° - -
1788082036 31.67° C 44% 1022 hPa 0 mm 3.13 m/s, 15° - -
1788081736 32.22° C 45% 1022 hPa 0 mm 1.79 m/s, 279° - -
1788081436 32.78° C 43% 1022 hPa 0 mm 1.34 m/s, 189° - -
1788081135 31.67° C 45% 1022 hPa 0 mm 1.79 m/s, 212° - -
1788080835 31.67° C 44% 1022 hPa 0 mm 3.13 m/s, 287° - -
1788080535 31.11° C 47% 1022 hPa 0 mm 3.58 m/s, 351° - -
1788080235 30.56° C 47% 1022 hPa 0 mm 3.13 m/s, 27° - -
1788079935 30.56° C 47% 1022 hPa 0 mm 4.02 m/s, 338° - -
1788079635 30° C 47% 1022 hPa 0 mm 6.26 m/s, 76° - -
1788079335 31.11° C 46% 1022 hPa 0 mm 1.79 m/s, 259° - -
1788079035 30.56° C 48% 1022 hPa 0 mm 4.02 m/s, 270° - -
1788078735 31.67° C 44% 1021.7 hPa 0 mm 2.68 m/s, 219° - -
1788078435 31.11° C 46% 1021.7 hPa 0 mm 3.13 m/s, 345° - -
1788078134 31.67° C 45% 1022 hPa 0 mm 2.68 m/s, 309° - -
1788077835 31.11° C 47% 1022 hPa 0 mm 2.24 m/s, 270° - -
1788077534 31.11° C 45% 1021.7 hPa 0 mm 3.13 m/s, 85° - -
1788077234 31.11° C 45% 1021.7 hPa 0 mm 3.58 m/s, 239° - -
1788076934 31.67° C 45% 1021.7 hPa 0 mm 2.68 m/s, 342° - -
1788076634 31.11° C 46% 1021.7 hPa 0 mm 5.81 m/s, 5° - -
1788076334 30.56° C 46% 1021.7 hPa 0 mm 4.02 m/s, 285° - -

* Rain latest hour (hover to see other rain measurements)
** Current wind speed in m/s (hover to see current wind gust speed)